Lamar, CO

2:07 AM MST on January 22, 2017 (GMT -0700)
Lamar Municipal

Weather History for KLAA - April, 2012

Change the Weather History Date:

Sunday, April 15, 2012

  Actual Average Record
Temperature  
Mean Temperature 47 °F 52 °F  
Max Temperature 59 °F 69 °F 95 °F (2002)
Min Temperature 34 °F 35 °F 18 °F (2007)
Degree Days  
Heating Degree Days 18 13  
Month to date heating degree days 155 229  
Since 1 July heating degree days 4771 5238  
Cooling Degree Days 0 0  
Month to date cooling degree days 2 0  
Year to date cooling degree days 7 0  
Moisture  
Dew Point 35 °F    
Average Humidity 64    
Maximum Humidity 92    
Minimum Humidity 36    
Precipitation  
Precipitation 0.18 in 0.04 in 0.26 in (2003)
Month to date precipitation 1.14 0.49  
Year to date precipitation 1.78 2.00  
Snow  
Snow 0.00 in - - ()
Month to date snowfall 0.0  
Snow Depth 0.00 in    
Sea Level Pressure  
Sea Level Pressure 29.60 in    
Wind  
Wind Speed 15 mph (WNW)    
Max Wind Speed 37 mph    
Max Gust Speed 45 mph    
Visibility 9 miles    
Events Rain    
T = Trace of Precipitation, MM = Missing Value Source: NWS Daily Summary

Daily Weather History Graph

Daily Weather History Graph

Search for Another Location

Airport or City:

Trip Planner

Search our weather history database for the weather conditions in past years. The results will help you decide how hot, cold, wet, or windy it might be!

Date:

Astronomy

Apr. 15, 2012 Rise Set
Actual Time 6:14 AM MDT 7:27 PM MDT
Civil Twilight 5:47 AM MDT 7:54 PM MDT
Nautical Twilight 5:14 AM MDT 8:27 PM MDT
Astronomical Twilight 4:40 AM MDT 9:01 PM MDT
Moon 3:08 AM MDT (4/15) 2:29 PM MDT (4/15)
Length of Visible Light 14h 07m
Length of Day
13h 12m
Waning Crescent, 27% of the Moon is Illuminated
Apr 15
Waning Crescent
Apr 21
New
Apr 29
First Quarter
May 5
Full
May 12
Last Quarter

Hourly Weather History & Observations

Time (MDT) Temp. Windchill Dew Point Humidity Pressure Visibility Wind Dir Wind Speed Gust Speed Precip Events Conditions
12:53 AM 44.1 °F 39.0 °F 23.0 °F 43% 29.36 in 10.0 mi West 9.2 mph - N/A   Clear
1:53 AM 43.0 °F 35.7 °F 18.0 °F 37% 29.31 in 10.0 mi WSW 15.0 mph - N/A   Clear
2:53 AM 42.1 °F 35.2 °F 17.1 °F 37% 29.30 in 10.0 mi SW 12.7 mph - N/A   Clear
3:53 AM 36.0 °F 32.1 °F 21.0 °F 55% 29.31 in 10.0 mi WSW 4.6 mph - N/A   Clear
4:53 AM 43.0 °F 38.2 °F 24.1 °F 47% 29.32 in 10.0 mi WNW 8.1 mph - N/A   Overcast
5:53 AM 41.0 °F 31.6 °F 39.0 °F 93% 29.36 in 5.0 mi WNW 20.7 mph 29.9 mph 0.02 in Rain Rain
6:09 AM 39.2 °F 30.5 °F 39.2 °F 100% 29.46 in 2.5 mi West 16.1 mph - 0.07 in Rain Heavy Rain
6:26 AM 37.4 °F 28.2 °F 35.6 °F 93% 29.47 in 5.0 mi WSW 16.1 mph - 0.13 in Rain Rain
6:53 AM 39.0 °F 30.6 °F 37.0 °F 93% 29.39 in 10.0 mi SW 15.0 mph - 0.15 in Rain Light Rain
7:53 AM 45.0 °F 39.3 °F 42.1 °F 90% 29.43 in 10.0 mi WNW 11.5 mph - 0.01 in Rain Light Rain
8:03 AM 44.6 °F 38.8 °F 42.8 °F 93% 29.51 in 10.0 mi West 11.5 mph - 0.00 in Rain Light Rain
8:16 AM 46.4 °F 41.5 °F 42.8 °F 87% 29.52 in 10.0 mi WNW 10.4 mph - 0.00 in   Overcast
8:53 AM 48.0 °F - 41.0 °F 77% 29.47 in 10.0 mi NNW 17.3 mph 28.8 mph 0.00 in   Overcast
9:53 AM 51.1 °F - 39.0 °F 63% 29.50 in 10.0 mi NNW 26.5 mph 35.7 mph N/A   Overcast
10:53 AM 54.0 °F - 39.0 °F 57% 29.54 in 10.0 mi North 28.8 mph 38.0 mph N/A   Partly Cloudy
11:53 AM 57.0 °F - 37.9 °F 49% 29.57 in 10.0 mi NNW 27.6 mph 40.3 mph N/A   Scattered Clouds
12:53 PM 55.9 °F - 36.0 °F 47% 29.62 in 10.0 mi North 26.5 mph 36.8 mph N/A   Mostly Cloudy
1:53 PM 55.9 °F - 35.1 °F 45% 29.65 in 10.0 mi NNW 32.2 mph 40.3 mph N/A   Mostly Cloudy
2:53 PM 57.0 °F - 35.1 °F 44% 29.68 in - North 27.6 mph 40.3 mph N/A   Scattered Clouds
3:53 PM 55.9 °F - - N/A% 29.71 in - North - - N/A   Unknown
4:53 PM 57.9 °F - 33.1 °F 39% 29.74 in - NNW 23.0 mph - N/A   Unknown
5:53 PM 55.0 °F - 36.0 °F 49% 29.79 in 10.0 mi NNW 15.0 mph - N/A   Scattered Clouds
6:53 PM 50.0 °F - 37.0 °F 61% 29.86 in 10.0 mi North 16.1 mph - N/A   Mostly Cloudy
7:53 PM 48.0 °F - 36.0 °F 63% 29.89 in 10.0 mi NNW 9.2 mph - N/A   Partly Cloudy
8:53 PM 43.0 °F - 37.0 °F 80% 29.94 in 10.0 mi Calm Calm - N/A   Clear
9:53 PM 42.1 °F 39.2 °F 37.0 °F 82% 29.97 in 10.0 mi West 4.6 mph - N/A   Clear
10:53 PM 41.0 °F 39.0 °F 37.0 °F 86% 30.00 in 10.0 mi North 3.5 mph - N/A   Clear
11:53 PM 37.9 °F 35.5 °F 36.0 °F 93% 30.02 in 10.0 mi SSW 3.5 mph - N/A   Clear